TimeEST,TemperatureF,Dew PointF,Humidity,Sea Level PressureIn,VisibilityMPH,Wind Direction,Wind SpeedMPH,Gust SpeedMPH,PrecipitationIn,Events,Conditions,WindDirDegrees,DateUTC
12:15 AM,64.4,64.4,100,30.09,10.0,Calm,Calm,-,N/A,,Overcast,0,2013-11-07 05:15:00
12:35 AM,64.4,64.4,100,30.08,10.0,Calm,Calm,-,N/A,,Overcast,0,2013-11-07 05:35:00
12:55 AM,64.4,64.4,100,30.07,10.0,Calm,Calm,-,N/A,,Overcast,0,2013-11-07 05:55:00
1:15 AM,64.4,64.4,100,30.07,10.0,Calm,Calm,-,N/A,,Overcast,0,2013-11-07 06:15:00
1:35 AM,64.4,64.4,100,30.07,10.0,Calm,Calm,-,N/A,,Overcast,0,2013-11-07 06:35:00
1:55 AM,64.4,64.4,100,30.06,10.0,Calm,Calm,-,N/A,,Overcast,0,2013-11-07 06:55:00
2:15 AM,64.4,64.4,100,30.05,10.0,Calm,Calm,-,N/A,,Overcast,0,2013-11-07 07:15:00
2:35 AM,64.4,64.4,100,30.05,10.0,Calm,Calm,-,N/A,,Overcast,0,2013-11-07 07:35:00
2:55 AM,62.6,62.6,100,30.04,10.0,Calm,Calm,-,N/A,,Overcast,0,2013-11-07 07:55:00
3:15 AM,62.6,62.6,100,30.04,10.0,Calm,Calm,-,N/A,,Overcast,0,2013-11-07 08:15:00
3:35 AM,62.6,62.6,100,30.04,10.0,Calm,Calm,-,N/A,,Overcast,0,2013-11-07 08:35:00
3:55 AM,62.6,62.6,100,30.04,10.0,Calm,Calm,-,N/A,,Overcast,0,2013-11-07 08:55:00
4:15 AM,62.6,62.6,100,30.04,10.0,Calm,Calm,-,N/A,,Overcast,0,2013-11-07 09:15:00
4:35 AM,62.6,62.6,100,30.03,10.0,Calm,Calm,-,N/A,,Overcast,0,2013-11-07 09:35:00
4:55 AM,62.6,62.6,100,30.03,10.0,Calm,Calm,-,N/A,,Overcast,0,2013-11-07 09:55:00
5:15 AM,62.6,62.6,100,30.02,7.0,Calm,Calm,-,N/A,,Overcast,0,2013-11-07 10:15:00
5:35 AM,62.6,62.6,100,30.02,4.0,Calm,Calm,-,N/A,,Overcast,0,2013-11-07 10:35:00
5:55 AM,62.6,62.6,100,30.02,1.5,Calm,Calm,-,N/A,,Overcast,0,2013-11-07 10:55:00
6:15 AM,62.6,62.6,100,30.02,1.2,Calm,Calm,-,N/A,,Overcast,0,2013-11-07 11:15:00
6:35 AM,62.6,62.6,100,30.02,1.2,Calm,Calm,-,N/A,,Overcast,0,2013-11-07 11:35:00
6:55 AM,62.6,62.6,100,30.03,1.2,WNW,3.5,-,N/A,,Overcast,300,2013-11-07 11:55:00
7:15 AM,62.6,62.6,100,30.04,1.2,Calm,Calm,-,N/A,,Overcast,0,2013-11-07 12:15:00
7:35 AM,62.6,62.6,100,30.04,0.8,Calm,Calm,-,N/A,,Overcast,0,2013-11-07 12:35:00
7:55 AM,62.6,62.6,100,30.05,0.8,Calm,Calm,-,N/A,,Overcast,0,2013-11-07 12:55:00
8:15 AM,62.6,62.6,100,30.05,3.0,Calm,Calm,-,N/A,,Overcast,0,2013-11-07 13:15:00
8:35 AM,62.6,62.6,100,30.06,7.0,Calm,Calm,-,N/A,,Mostly Cloudy,0,2013-11-07 13:35:00
8:55 AM,64.4,64.4,100,30.06,10.0,Calm,Calm,-,N/A,,Scattered Clouds,0,2013-11-07 13:55:00
9:15 AM,64.4,64.4,100,30.05,10.0,Calm,Calm,-,N/A,,Clear,0,2013-11-07 14:15:00
9:35 AM,66.2,64.4,94,30.05,10.0,West,3.5,-,N/A,,Clear,260,2013-11-07 14:35:00
9:55 AM,68.0,64.4,88,30.04,10.0,Calm,Calm,-,N/A,,Clear,0,2013-11-07 14:55:00
10:15 AM,68.0,64.4,88,30.06,10.0,West,4.6,-,N/A,,Clear,260,2013-11-07 15:15:00
10:35 AM,69.8,64.4,83,30.05,10.0,WSW,4.6,-,N/A,,Clear,250,2013-11-07 15:35:00
10:55 AM,69.8,64.4,83,30.04,10.0,Calm,Calm,-,N/A,,Clear,0,2013-11-07 15:55:00
11:15 AM,71.6,64.4,78,30.03,10.0,Calm,Calm,-,N/A,,Clear,0,2013-11-07 16:15:00
11:35 AM,71.6,64.4,78,30.02,10.0,Calm,Calm,-,N/A,,Clear,0,2013-11-07 16:35:00
11:55 AM,73.4,64.4,73,30.01,10.0,WSW,4.6,-,N/A,,Clear,250,2013-11-07 16:55:00
12:15 PM,75.2,64.4,69,30.00,10.0,SW,5.8,-,N/A,,Scattered Clouds,220,2013-11-07 17:15:00
12:35 PM,77.0,62.6,61,29.99,10.0,West,8.1,-,N/A,,Scattered Clouds,270,2013-11-07 17:35:00
12:55 PM,77.0,60.8,57,29.98,10.0,WNW,9.2,-,N/A,,Scattered Clouds,290,2013-11-07 17:55:00
1:15 PM,77.0,60.8,57,29.97,10.0,WSW,8.1,-,N/A,,Clear,250,2013-11-07 18:15:00
1:35 PM,77.0,62.6,61,29.97,10.0,West,9.2,-,N/A,,Scattered Clouds,260,2013-11-07 18:35:00
1:55 PM,78.8,62.6,57,29.96,10.0,SW,8.1,-,N/A,,Scattered Clouds,230,2013-11-07 18:55:00
2:15 PM,78.8,62.6,57,29.96,10.0,WSW,6.9,-,N/A,,Scattered Clouds,240,2013-11-07 19:15:00
2:35 PM,78.8,64.4,61,29.95,10.0,SSW,6.9,-,N/A,,Mostly Cloudy,210,2013-11-07 19:35:00
2:55 PM,75.2,64.4,69,29.95,10.0,WSW,6.9,-,N/A,,Mostly Cloudy,250,2013-11-07 19:55:00
3:15 PM,75.2,64.4,69,29.95,10.0,WSW,6.9,-,N/A,,Overcast,250,2013-11-07 20:15:00
3:35 PM,73.4,64.4,73,29.95,10.0,WSW,3.5,-,N/A,,Overcast,240,2013-11-07 20:35:00
3:55 PM,73.4,64.4,73,29.95,10.0,WSW,4.6,-,N/A,,Mostly Cloudy,250,2013-11-07 20:55:00
4:15 PM,73.4,64.4,73,29.96,10.0,WSW,5.8,-,N/A,,Scattered Clouds,240,2013-11-07 21:15:00
4:35 PM,73.4,64.4,73,29.95,10.0,WSW,3.5,-,N/A,,Scattered Clouds,250,2013-11-07 21:35:00
4:55 PM,71.6,64.4,78,29.96,10.0,WSW,4.6,-,N/A,,Scattered Clouds,240,2013-11-07 21:55:00
5:35 PM,68.0,64.4,88,29.97,10.0,Calm,Calm,-,N/A,,Clear,0,2013-11-07 22:35:00
5:55 PM,68.0,64.4,88,29.97,10.0,Calm,Calm,-,N/A,,Clear,0,2013-11-07 22:55:00
6:15 PM,64.4,64.4,100,29.98,10.0,Calm,Calm,-,N/A,,Clear,0,2013-11-07 23:15:00
6:35 PM,64.4,64.4,100,29.99,10.0,Calm,Calm,-,N/A,,Clear,0,2013-11-07 23:35:00
6:55 PM,62.6,62.6,100,29.99,10.0,Calm,Calm,-,N/A,,Clear,0,2013-11-07 23:55:00
7:15 PM,62.6,62.6,100,30.00,10.0,West,3.5,-,N/A,,Clear,260,2013-11-08 00:15:00
7:35 PM,62.6,62.6,100,30.00,10.0,West,3.5,-,N/A,,Clear,260,2013-11-08 00:35:00
7:55 PM,62.6,62.6,100,30.00,10.0,Calm,Calm,-,N/A,,Clear,0,2013-11-08 00:55:00
8:15 PM,62.6,62.6,100,30.01,10.0,Calm,Calm,-,N/A,,Clear,0,2013-11-08 01:15:00
8:35 PM,62.6,62.6,100,30.02,10.0,Calm,Calm,-,N/A,,Clear,0,2013-11-08 01:35:00
8:55 PM,60.8,60.8,100,30.02,7.0,Calm,Calm,-,N/A,,Clear,0,2013-11-08 01:55:00
9:15 PM,60.8,60.8,100,30.02,7.0,Calm,Calm,-,N/A,,Clear,0,2013-11-08 02:15:00
9:35 PM,59.0,59.0,100,30.02,5.0,Calm,Calm,-,N/A,,Scattered Clouds,0,2013-11-08 02:35:00
9:55 PM,59.0,59.0,100,30.02,1.2,Calm,Calm,-,N/A,,Scattered Clouds,0,2013-11-08 02:55:00
10:15 PM,59.0,59.0,100,30.02,5.0,North,8.1,-,N/A,,Mostly Cloudy,350,2013-11-08 03:15:00
10:35 PM,60.8,60.8,100,30.03,10.0,NNW,6.9,-,N/A,,Scattered Clouds,340,2013-11-08 03:35:00
10:55 PM,60.8,60.8,100,30.04,10.0,North,6.9,-,N/A,,Clear,350,2013-11-08 03:55:00
11:15 PM,60.8,57.2,88,30.04,10.0,North,8.1,-,N/A,,Scattered Clouds,350,2013-11-08 04:15:00
11:35 PM,59.0,55.4,88,30.06,10.0,North,5.8,-,N/A,,Scattered Clouds,350,2013-11-08 04:35:00
11:55 PM,59.0,50.0,72,30.07,10.0,North,9.2,-,N/A,,Clear,350,2013-11-08 04:55:00